Location: Chagrin Falls Park
(41.4139°N, 81.3865°W)
Time: 02:04:54
(UTC+00:00)

Envisat - Pass Details

Date: 04 August 2021
Orbit: 764 x 766 km, 98.2° (Epoch: 22 September)

Event Time Altitude Azimuth Distance (km) Brightness Sun altitude
Rises 09:33:57 0° 29° (NNE) 3,241 7.5 -9.1°
Reaches altitude 10° 09:36:58 10° 48° (NE) 2,309 7.1 -8.6°
Maximum altitude 09:40:28 19° 92° (E) 1,786 5.8 -8.0°
Drops below altitude 10° 09:43:56 10° 135° (SE) 2,296 5.7 -7.5°
Sets 09:46:55 0° 154° (SSE) 3,216 6.2 -7.0°
